{"data":{"norad_id":50177,"intl_designator":"2021-125X","name":"STARLINK-3282","alt_names":[],"object_type":"PAYLOAD","status":"ACTIVE","operator":null,"country":"US","launch_date":"2021-12-18","launch_site_code":"AFWTR","launch_vehicle":null,"mission":null,"orbit_class":"UNKNOWN","rcs_meters":null,"size_class":null,"mass_kg":null,"dimensions":null,"purposes":["comms"],"wikipedia_slug":null,"has_3d_model":false,"image_url":null,"decayed_at":null,"tle_current":{"epoch":"2026-05-25T01:46:20.385120Z","epoch_age_seconds":68627,"freshness":"FRESH","line1":"1 50177U 21125X   26145.07384705 -.00000033  00000+0  16033-4 0  9996","line2":"2 50177  53.2161 266.2171 0001386 102.9601 257.1546 15.08837363248134","mean_motion":15.08837363,"eccentricity":0.0001386,"inclination_deg":53.2161,"raan_deg":266.2171,"arg_perigee_deg":102.9601,"mean_anomaly_deg":257.1546,"bstar":1.6033e-5,"rev_number":24813,"period_min":95.437721474293,"perigee_km":538.79262989083,"apogee_km":540.71026856896,"semimajor_km":6917.8884492299,"source":"CELESTRAK","updated_at":"2026-05-25T13:38:16.845367Z"}}}